Temp
15 15 14 14 14 14 13 14 14 13 13 14 13 13 13 13 13 14 14 14 14 13 13 13 13 12 13 13 13 13 13 13 13 13 14 14 14 14 14 14 14 14 14
15 15 14 14 14 13 13 13 13 13 13 13 13 13 13 13 13 14 13 13 13 13 12 12 12 12 12 13 13 13 12 13 13 14 13 14 14 13 13 13 13 14 14
15 14 14 14 13 13 13 13 14 14 14 14 13 13 13 13 13 13 13 13 13 12 12 12 12 12 12 12 12 12 12 12 13 13 12 13 13 13 13 13 13 14 14
14 14 14 13 13 13 13 13 13 14 14 13 13 13 13 13 13 13 13 13 12 12 12 12 12 11 11 11 12 12 11 12 11 12 12 13 13 12 13 13 13 13 13
14 14 13 13 13 13 13 13 13 13 13 13 13 12 13 13 13 13 12 12 12 12 11 12 11 11 11 11 11 11 11 11 11 11 12 12 12 12 12 12 12 13 13
14 14 13 13 13 13 13 13 13 12 12 12 13 12 12 12 12 12 12 12 12 11 11 11 11 11 11 11 10 10 10 10 10 11 11 12 12 12 12 12 12 12 12
14 14 13 13 13 13 12 12 12 12 12 12 12 11 12 12 12 12 11 11 11 11 11 11 11 11 10 10 10 10 9 9 10 10 11 11 11 11 11 12 12 12 12
13 13 13 13 13 13 12 12 11 11 11 10 10 8 12 12 11 11 11 11 11 11 11 11 10 10 10 10 10 10 10 9 9 10 10 11 11 11 11 11 11 11 11
13 13 13 13 13 13 12 12 11 11 9 10 10 10 12 12 10 10 11 11 11 11 11 10 10 9 10 10 10 10 9 9 9 10 10 10 10 10 10 10 10 10 10
13 13 13 13 12 12 12 11 11 10 10 9 9 9 9 9 10 11 10 11 11 10 10 10 10 10 9 9 9 9 9 9 8 9 9 10 10 10 10 10 10 10 10
13 13 12 12 12 11 11 11 10 10 9 9 8 8 8 7 7 9 10 10 9 9 9 9 10 10 10 10 9 9 9 9 8 8 8 9 9 9 8 9 9 9 9
12 12 12 11 11 11 11 10 10 10 9 9 9 8 7 8 9 8 9 9 9 9 8 9 10 10 10 10 9 9 9 9 8 8 8 9 9 8 7 7 8 8 9
12 11 11 11 10 10 10 10 10 10 9 9 8 8 8 7 7 7 7 8 8 9 8 9 9 9 9 9 9 9 9 9 8 8 8 8 8 7 7 6 7 7 8
11 10 10 10 10 10 10 10 9 9 9 9 8 8 8 8 8 6 7 7 8 9 9 9 9 9 10 10 9 9 9 9 9 8 8 7 7 7 7 7 6 7 7
10 10 10 10 9 9 9 9 9 9 8 8 8 8 8 8 8 7 6 6 6 7 9 10 9 9 9 9 10 9 9 9 8 8 8 8 7 7 7 7 7 8 8
10 9 9 9 9 9 8 8 8 8 8 8 7 8 7 7 7 7 7 6 5 6 7 8 8 8 8 8 8 8 8 8 8 8 8 8 8 7 7 7 6 7 7
9 9 8 8 8 8 8 8 8 8 8 8 8 7 7 7 7 6 6 6 5 5 5 6 7 6 6 7 7 8 8 8 8 8 8 8 8 7 7 6 6 6 6
8 8 8 8 8 8 7 7 7 7 7 7 7 6 7 6 6 6 6 6 4 5 5 5 6 6 6 6 6 7 7 7 7 8 8 8 8 7 7 6 6 6 5
8 8 7 7 7 7 7 7 6 6 6 6 6 6 6 6 6 6 5 5 4 4 4 4 4 5 5 5 5 5 6 6 7 7 7 7 7 7 7 6 6 6 6
7 7 7 7 6 6 6 6 6 6 5 6 6 5 5 5 5 5 4 4 4 3 3 3 3 4 4 4 4 4 6 6 6 6 6 6 7 7 7 6 5 5 6
6 6 6 6 6 5 5 5 5 5 5 5 5 5 5 5 5 4 4 3 3 2 2 2 3 3 3 3 3 5 4 6 6 5 5 6 6 6 6 6 5 5 5
5 5 5 5 5 5 5 5 4 3 4 4 4 4 4 4 5 4 4 3 3 3 3 2 3 3 4 5 4 4 4 3 4 5 4 5 5 6 6 6 6 5 5
4 4 4 4 4 4 5 4 4 3 3 3 3 3 4 4 4 4 4 3 3 3 3 3 3 4 4 4 3 3 3 3 3 4 3 3 5 5 6 6 6 5 5
4 4 4 4 4 4 4 4 4 3 3 3 4 3 3 3 4 3 3 2 2 2 2 2 2 2 2 2 2 2 2 2 2 3 3 1 3 3 5 5 5 5 5
3 3 3 3 3 3 4 4 3 3 3 3 3 3 3 3 3 3 2 2 2 2 2 2 1 1 2 2 2 2 2 1 1 2 3 1 2 2 3 4 4 4 4
3 3 3 3 3 2 3 3 3 2 2 2 3 3 3 3 2 2 2 2 2 2 2 2 2 2 2 2 2 2 2 1 1 1 3 2 2 2 2 3 3 3 3
Height
851 851 850 848 847 845 843 841 838 836 832 828 826 824 823 823 823 823 823 821 820 819 818 817 815 813 812 810 808 806 805 804 803 802 800 799 797 796 795 793 792 791 791
850 851 850 848 847 845 842 841 838 835 833 829 827 825 824 823 823 823 824 823 821 820 818 817 816 814 812 810 809 807 805 804 803 801 799 798 796 795 794 793 792 791 790
850 850 849 848 846 844 843 841 839 836 833 830 828 827 825 825 823 825 825 825 824 822 820 818 817 816 813 811 809 807 806 804 803 802 799 798 796 795 794 792 791 790 788
850 849 848 848 846 844 842 840 839 836 833 831 829 828 826 826 825 824 825 825 825 824 821 819 817 815 814 812 809 807 805 803 802 802 800 797 796 795 793 792 790 789 787
849 849 848 847 845 844 842 840 838 836 834 831 829 828 826 825 825 824 824 824 823 822 821 819 817 815 813 811 808 806 805 803 802 801 800 797 796 794 792 791 789 787 785
848 848 847 846 845 844 842 841 839 837 835 832 830 829 827 824 824 824 823 822 822 821 820 819 817 815 812 809 807 806 805 803 801 800 799 796 795 792 790 789 787 785 782
847 847 846 845 844 843 842 840 839 837 835 833 830 827 826 824 824 824 823 822 821 821 820 818 816 815 812 809 806 804 803 803 801 799 798 796 794 792 790 787 786 784 781
846 846 845 844 843 842 841 840 838 837 835 834 834 831 827 824 823 821 822 821 821 820 819 816 814 813 811 808 806 803 801 800 800 798 796 794 793 791 789 786 784 781 779
845 845 844 844 843 841 839 839 837 836 835 834 833 834 829 827 826 821 820 818 818 818 817 815 812 809 806 805 804 803 801 799 798 797 795 793 791 789 787 785 782 780 778
845 845 844 843 842 841 839 837 836 835 835 834 832 832 831 831 828 822 818 817 816 815 814 811 809 806 805 803 802 801 800 798 797 795 793 792 790 787 786 784 781 779 777
844 844 843 843 841 840 838 837 835 834 833 833 832 832 830 828 829 829 818 816 815 812 810 808 805 803 801 801 801 800 799 797 796 794 792 790 788 786 784 782 780 778 775
844 843 843 842 840 839 837 835 833 832 831 830 830 830 828 828 825 825 821 815 813 809 806 804 803 801 799 798 797 798 798 796 794 791 790 788 786 784 782 780 778 775 773
843 842 841 840 838 837 835 833 831 830 829 828 827 826 825 823 822 821 820 816 812 805 803 801 799 797 796 795 795 794 794 793 791 789 787 786 783 781 779 777 775 772 771
842 841 840 839 837 835 833 831 829 827 826 825 823 822 820 819 819 818 818 815 809 805 801 797 795 794 793 791 791 792 791 789 787 786 784 783 781 778 775 774 772 769 767
841 840 838 837 836 834 832 830 828 826 824 823 821 818 816 814 814 813 812 811 810 804 796 792 792 790 790 789 788 787 786 785 783 781 779 777 777 776 774 771 769 767 765
839 838 837 836 834 832 830 827 825 824 821 819 817 815 813 812 809 808 807 805 804 802 797 791 789 787 786 785 784 783 780 779 777 777 775 773 771 771 771 770 768 765 763
838 837 835 833 831 829 827 825 822 820 816 814 811 810 808 807 805 804 802 801 799 797 792 787 783 782 780 779 778 776 775 773 771 770 770 768 767 765 765 765 765 764 762
836 835 833 831 829 827 825 822 819 816 813 810 807 805 803 801 799 798 797 794 792 790 788 782 779 776 773 772 771 770 769 767 765 765 764 763 762 761 760 759 760 760 760
834 833 832 829 827 825 822 819 815 812 809 806 804 800 798 795 793 791 789 788 787 785 782 778 773 771 769 767 764 763 761 760 759 757 757 757 756 755 754 754 754 754 756
832 831 829 826 824 821 817 814 811 808 805 802 799 796 793 791 788 785 783 780 778 776 775 773 770 767 764 762 760 758 756 754 752 752 751 750 750 750 750 750 750 749 750
830 828 825 822 819 816 812 808 805 802 798 795 792 789 787 785 782 779 777 773 772 770 768 765 763 763 761 759 757 754 751 749 748 747 745 744 744 743 744 744 744 746 746
826 824 821 818 815 811 808 805 801 798 795 791 787 784 781 778 775 773 771 769 768 766 763 760 757 755 753 751 751 749 748 746 743 742 741 738 737 737 737 739 740 740 742
822 820 817 813 809 806 803 799 796 791 787 784 781 777 773 771 770 768 765 763 762 760 759 756 751 749 747 747 745 745 744 742 740 739 739 736 735 733 733 734 735 736 736
818 814 811 807 803 800 797 794 790 786 782 778 774 772 768 765 764 762 760 758 756 755 754 752 749 746 744 742 740 739 738 737 736 736 735 735 730 729 729 728 729 730 732
812 808 805 802 799 794 792 788 785 780 776 772 769 765 762 759 758 758 755 752 750 749 749 749 746 743 741 738 737 734 732 733 731 730 730 730 729 726 726 725 724 725 727
806 803 799 796 792 788 785 782 779 775 771 766 762 759 757 756 753 751 749 747 744 742 742 740 740 738 737 734 731 730 728 726 727 725 723 726 724 725 724 722 721 721 722
Wind_Speed
10 11 13 14 15 15 17 19 19 19 21 20 15 12 8 6 6 6 6 6 6 9 11 11 12 12 10 9 13 10 8 7 7 8 8 8 8 7 7 6 6 5 7
8 10 12 14 14 15 17 17 18 20 22 20 17 10 8 7 7 6 5 6 6 7 11 11 13 14 9 7 10 12 11 12 9 7 12 8 5 6 9 10 10 9 9
7 9 11 13 14 14 15 15 16 18 20 18 15 11 9 8 9 8 6 6 7 8 10 10 11 13 11 10 10 10 11 10 7 10 12 7 8 8 10 12 12 11 11
5 7 9 12 13 13 14 15 17 18 19 19 13 10 8 7 6 6 4 4 5 6 6 7 8 9 12 11 11 10 9 8 10 11 13 9 8 9 11 10 11 12 13
4 6 9 10 11 12 13 15 16 17 17 19 10 6 6 5 4 2 1 1 1 2 5 7 7 6 8 10 11 9 8 7 9 10 13 12 11 9 8 11 12 12 14
4 6 7 8 9 10 12 14 15 15 14 20 12 5 2 4 3 2 2 2 2 3 7 9 8 8 8 9 8 8 7 8 9 10 11 11 13 9 8 10 12 14 15
4 6 7 8 8 9 11 13 14 14 12 18 11 8 2 3 1 8 2 1 2 4 9 11 12 11 10 10 7 4 6 8 8 9 10 10 11 11 11 10 11 14 15
4 6 6 7 8 8 9 10 11 11 9 11 6 3 3 2 2 6 5 4 5 7 14 14 14 13 17 15 9 4 5 7 8 9 9 9 10 10 12 11 12 13 14
3 4 6 7 8 9 9 9 9 9 7 8 8 3 2 2 7 4 4 5 7 9 20 20 18 22 18 14 10 5 4 6 6 8 9 9 9 10 11 11 12 12 13
3 4 7 8 9 9 9 9 9 9 9 7 7 4 5 5 3 4 3 9 10 9 19 16 23 17 14 12 9 8 6 5 8 9 8 8 10 8 10 11 11 12 13
4 6 8 9 9 9 10 10 10 10 11 11 8 7 6 7 8 7 7 6 15 12 16 19 13 9 9 5 7 6 4 7 10 11 10 7 8 9 10 10 11 11 12
5 8 9 9 10 10 10 11 11 10 11 12 12 13 10 7 6 7 6 13 15 14 15 14 15 10 12 9 8 7 6 8 13 12 10 9 9 9 9 9 10 11 10
8 9 10 10 10 10 11 11 11 11 12 13 13 14 15 15 14 13 13 15 9 12 10 12 12 7 14 9 10 8 7 14 17 16 12 11 10 9 9 9 9 10 9
9 10 11 11 11 12 12 12 12 12 12 12 13 14 16 16 16 15 14 11 9 13 19 13 13 19 10 8 10 10 13 18 17 17 15 13 12 12 11 10 9 8 8
10 11 12 13 13 13 14 14 15 15 14 14 14 15 15 17 17 17 16 14 12 8 10 10 8 9 11 12 14 18 21 22 21 19 16 15 15 14 14 12 11 9 8
11 13 14 15 15 15 15 15 16 15 16 16 16 17 17 17 19 18 17 16 14 16 8 20 19 19 23 26 27 25 25 23 21 19 17 16 15 15 15 14 13 10 9
12 13 14 15 16 17 16 16 16 17 17 18 17 16 19 17 19 18 17 17 15 15 13 23 22 18 21 25 28 26 25 24 24 21 19 18 17 15 15 15 14 12 10
12 14 15 17 18 18 18 18 19 20 20 21 21 20 21 19 20 20 19 20 18 17 18 19 24 21 20 21 24 26 25 23 24 22 20 19 18 17 16 15 14 13 11
14 15 17 19 20 21 22 22 21 22 22 22 22 22 23 21 22 21 20 20 20 19 17 18 20 22 20 19 18 21 21 21 22 21 21 21 19 17 16 17 15 14 11
15 17 19 20 21 22 23 24 23 23 24 25 25 25 24 24 23 23 22 22 21 17 16 17 17 19 18 17 17 16 20 21 22 19 18 19 18 18 18 17 17 15 12
17 19 21 23 24 25 25 25 25 25 26 27 27 28 27 25 23 23 21 19 17 16 14 14 15 16 18 16 13 14 18 22 23 22 24 22 22 21 21 20 19 18 16
20 23 24 25 25 25 26 26 25 24 27 27 28 30 30 26 24 21 20 20 20 19 18 17 16 15 19 19 19 18 18 12 4 10 9 9 11 13 12 14 15 16 16
22 24 25 26 27 27 26 26 25 25 26 25 27 28 29 27 24 22 21 20 19 18 20 21 20 19 17 17 17 16 16 14 11 15 13 13 17 18 16 17 15 16 17
25 26 27 28 29 28 27 27 26 26 27 27 26 26 26 27 24 21 20 19 18 19 19 17 16 17 17 17 17 18 17 16 15 17 13 6 10 13 11 11 13 14 15
27 29 29 30 31 32 31 30 27 27 26 27 27 24 22 22 22 20 18 19 20 20 16 19 20 19 19 17 16 15 17 12 7 12 14 10 8 8 10 10 12 15 15
28 29 32 31 32 32 31 28 24 22 24 27 28 27 24 20 22 19 18 20 18 17 18 19 20 18 17 18 16 17 19 14 10 4 13 12 9 6 3 3 4 8 14
Wind_Direction
49 37 29 24 21 18 18 17 13 12 9 12 13 12 22 38 42 46 54 59 56 64 55 40 31 19 13 5 20 24 19 20 26 5 342 324 321 320 325 330 329 321 315
43 29 23 19 18 17 17 14 11 12 13 15 17 24 45 52 50 65 72 64 60 54 55 45 30 22 20 11 12 19 20 20 11 356 335 335 347 17 10 3 359 346 329
32 22 16 14 16 15 12 14 16 16 17 19 23 41 49 49 80 72 65 63 63 49 45 44 36 24 20 21 16 10 11 4 4 344 353 4 12 7 359 351 340 321 320
15 12 11 10 13 13 12 11 13 17 17 17 28 35 51 65 80 81 62 59 58 61 44 20 13 22 25 20 8 354 356 352 355 350 358 9 10 7 0 347 326 323 321
355 1 6 4 7 11 10 11 11 11 9 12 16 31 50 69 66 86 56 17 4 316 327 342 347 349 359 3 8 3 6 359 349 349 349 358 356 356 355 344 343 334 329
336 354 357 356 358 3 4 6 7 8 9 2 358 343 1 62 70 31 326 273 297 327 336 335 329 325 329 344 359 9 3 359 350 344 341 351 351 351 358 346 340 337 337
338 343 351 351 350 351 355 357 359 0 6 7 356 342 270 239 78 339 282 72 35 356 342 335 326 312 314 323 334 340 353 353 350 341 338 335 342 354 355 345 333 335 340
344 344 356 356 350 350 349 347 351 354 353 3 356 321 338 346 273 335 239 270 310 327 341 331 321 309 306 300 296 298 338 347 351 343 336 339 337 338 343 344 334 337 336
348 3 359 351 343 344 345 340 338 341 338 336 352 324 316 317 331 286 287 259 297 287 337 333 332 319 304 288 265 257 297 327 355 350 335 331 335 340 341 335 333 333 331
6 357 346 340 338 336 334 333 331 328 318 311 328 254 259 268 301 305 290 299 305 301 321 324 328 322 304 300 249 255 283 309 336 335 331 319 333 332 334 334 334 333 333
353 346 339 337 335 335 334 331 328 322 312 301 297 294 281 269 254 261 297 302 304 304 314 325 327 347 344 276 255 254 283 313 328 331 326 317 322 317 326 329 333 333 335
347 343 339 338 336 332 330 328 326 320 310 300 292 283 269 274 274 254 274 297 300 307 306 309 324 297 316 269 238 251 286 319 329 326 314 311 305 305 317 323 324 333 339
342 340 339 339 338 336 333 330 327 322 315 304 297 288 283 274 272 270 272 282 286 305 302 304 293 287 311 261 240 245 265 313 319 318 306 298 293 293 304 311 316 325 334
337 336 335 334 333 332 329 325 322 320 312 306 301 296 294 290 284 272 262 279 290 287 291 280 294 289 281 266 243 258 284 302 307 310 303 292 285 288 295 298 298 304 316
335 335 334 333 334 333 329 327 327 325 316 312 306 302 297 296 290 284 274 263 259 286 299 302 280 286 267 268 270 282 288 296 297 294 293 292 285 284 289 290 289 288 294
340 337 335 334 334 334 331 328 324 321 316 314 313 308 304 302 296 290 282 273 259 256 269 282 282 280 276 278 278 277 282 286 289 290 287 286 277 277 281 284 286 283 280
343 339 335 333 332 329 326 320 316 314 311 310 310 306 302 303 296 294 289 283 273 261 263 276 280 282 281 280 281 280 279 281 281 282 281 280 274 270 270 272 274 280 279
344 339 335 331 328 323 319 315 314 313 311 309 307 304 299 300 291 290 289 285 277 273 266 272 281 281 276 279 281 283 284 280 278 277 274 273 271 270 265 257 258 267 272
338 334 331 327 323 320 316 314 312 309 307 304 300 298 297 296 291 291 292 291 290 286 274 270 274 283 282 278 279 281 285 286 282 278 273 269 265 266 261 250 245 251 258
334 331 327 324 321 317 314 312 310 307 304 300 298 296 294 292 290 290 291 291 291 285 282 276 273 275 282 284 270 272 284 285 290 293 281 268 261 265 258 249 244 243 244
331 327 325 323 322 319 317 316 312 308 304 301 297 294 292 290 287 283 283 285 285 281 278 276 272 278 281 281 271 285 284 287 287 289 285 275 267 263 258 244 235 242 243
329 326 325 324 322 320 318 316 311 303 304 301 298 299 297 295 292 287 287 285 282 281 278 272 274 271 272 273 279 280 282 289 285 283 282 288 267 261 247 238 238 234 236
326 323 323 322 319 317 317 315 312 306 303 300 299 300 298 296 296 295 298 297 293 294 282 276 274 272 279 284 285 280 276 267 256 271 279 276 272 264 257 261 247 241 237
320 318 317 317 316 315 317 316 312 308 306 302 301 302 300 295 291 295 301 300 300 300 307 301 286 286 282 280 276 276 277 279 274 275 264 264 268 267 265 249 243 235 234
317 316 314 311 309 309 311 312 313 309 306 302 300 300 299 297 290 288 291 289 292 294 299 298 298 296 289 285 283 274 262 259 263 263 256 234 265 263 264 257 246 240 233
315 315 313 313 311 309 309 311 310 302 298 297 298 300 303 303 300 289 279 279 278 285 301 302 300 295 295 290 286 276 264 231 227 259 236 204 234 223 279 271 265 246 231